Theta_e
303 303 302 302 303 303 303 304 305 306 307 307 307 306 304 304 308 311 314 314 314 316 317 317 316 316 317 318 320 320 321 320 321 321 321 322 322 323 325 329 332 334 333 333 332 334 334 332 333 333 341 342 343 343
302 303 303 303 303 303 303 303 305 305 307 307 307 307 304 303 306 308 314 313 313 313 316 316 316 315 315 315 316 317 319 320 320 321 321 321 322 323 326 325 327 329 331 333 331 332 334 331 332 334 342 342 341 339
302 302 304 303 302 303 303 302 304 306 306 306 307 306 305 303 304 306 311 311 312 313 315 315 316 316 314 314 314 315 317 317 318 318 319 324 325 323 324 324 326 327 327 329 331 331 332 329 330 338 340 342 339 337
302 302 303 304 303 303 302 303 304 307 306 306 307 307 303 304 305 306 310 310 311 312 314 316 314 314 313 313 313 314 314 314 315 316 317 322 324 322 323 324 326 325 327 329 330 330 331 331 336 336 334 335 335 334
302 302 303 303 302 303 302 303 304 306 306 306 307 307 303 305 306 307 310 311 310 311 314 315 314 314 314 314 314 313 313 314 314 316 317 318 319 320 321 322 323 323 325 325 327 328 332 332 334 335 332 331 329 330
302 302 303 303 302 302 303 303 303 304 306 306 307 306 303 305 305 309 312 312 312 311 311 314 314 313 314 313 313 313 314 314 314 314 315 316 316 317 319 320 320 320 320 320 322 322 325 326 325 334 333 331 329 328
302 302 302 302 302 303 303 305 305 306 306 307 308 305 304 304 306 309 311 311 310 310 312 313 314 313 311 311 312 313 314 314 314 314 315 315 317 317 318 319 318 319 320 320 320 320 320 320 321 322 331 333 330 327
302 302 303 301 302 303 304 305 306 306 307 307 307 305 304 304 305 308 308 308 308 310 312 312 314 314 312 314 313 313 313 314 314 314 315 316 316 316 318 318 318 318 318 318 318 319 319 319 319 320 320 322 326 326
302 303 302 301 302 303 304 305 306 306 306 306 305 305 305 308 311 311 309 308 309 310 312 311 314 317 313 314 315 314 314 315 314 315 315 315 317 318 318 317 317 318 319 320 320 320 319 319 320 319 319 319 319 320
302 301 302 302 303 305 304 304 305 306 307 306 306 308 308 311 309 309 309 310 308 308 307 309 312 314 313 315 314 313 311 314 316 316 315 317 319 316 316 317 319 319 319 321 320 321 321 321 321 321 321 320 320 319
304 303 304 305 304 303 303 306 307 307 306 308 309 311 309 308 310 310 310 310 309 310 309 310 311 312 312 314 315 312 315 315 316 317 317 318 320 321 318 317 317 319 319 318 320 321 322 322 322 322 323 322 321 321
305 305 307 307 306 304 304 306 306 307 308 307 307 309 310 310 311 312 314 313 314 314 312 313 314 311 310 310 311 312 314 314 318 316 318 319 323 322 322 320 319 318 321 322 322 321 321 321 321 322 322 322 323 322
305 306 307 307 307 306 305 306 307 306 307 307 309 309 309 310 312 312 313 314 315 315 315 315 314 312 310 309 311 311 314 316 316 318 320 320 321 322 323 323 323 324 323 323 322 322 321 321 321 322 321 322 322 323
305 308 307 307 307 307 307 306 306 306 307 308 309 312 311 312 312 312 313 315 314 314 315 315 316 315 312 311 312 313 314 316 319 320 320 321 323 323 324 324 324 323 322 321 321 321 320 321 321 321 322 322 322 322
305 307 307 307 307 308 307 306 306 307 307 308 310 313 312 313 313 313 313 314 313 313 314 316 316 316 316 315 312 313 315 317 319 320 322 321 321 321 322 322 321 321 321 320 320 320 321 321 321 322 325 324 324 324
306 307 307 306 306 307 307 307 307 306 307 307 310 312 312 313 313 313 313 313 312 312 312 313 315 317 319 317 316 316 317 320 320 321 320 319 319 318 318 319 319 319 318 318 319 319 320 321 322 323 324 326 326 326
307 309 307 306 307 308 308 308 307 306 306 308 309 310 310 310 310 310 309 309 309 309 312 312 314 316 318 318 318 317 320 320 319 318 317 316 317 317 317 317 317 317 318 319 320 321 321 322 322 324 325 324 327 327
309 309 309 307 307 308 308 307 307 307 308 309 309 309 309 308 309 309 309 309 309 309 310 313 312 316 318 320 321 321 318 317 317 317 316 317 317 317 318 318 318 320 322 322 323 323 323 324 324 324 324 324 322 322
307 308 308 308 308 308 307 307 307 308 309 309 308 309 309 309 310 310 309 309 309 309 310 311 313 315 316 316 316 316 315 316 316 316 316 317 318 320 321 320 322 324 324 323 322 321 323 323 321 322 324 321 320 322
310 310 309 309 308 308 307 308 307 307 309 309 309 309 310 311 311 312 311 310 309 309 310 310 312 313 314 314 314 314 314 315 316 316 317 318 320 320 320 322 323 324 325 324 323 321 323 319 318 317 318 319 320 323
312 311 310 310 309 308 308 308 308 308 309 309 310 311 312 313 314 314 313 311 310 310 312 311 311 312 313 315 316 317 318 319 318 318 319 320 322 321 322 321 322 322 323 323 325 323 320 320 320 319 317 316 321 324
312 311 311 311 310 310 310 311 311 310 310 312 313 313 314 316 316 316 314 312 312 312 312 314 316 318 318 318 318 318 319 320 321 322 324 323 321 321 321 319 320 322 323 324 325 327 328 322 320 323 325 322 322 322
312 312 313 313 314 316 316 315 313 314 313 316 318 318 319 318 317 315 316 315 315 316 318 318 319 319 319 319 319 319 320 322 323 324 323 323 322 321 320 321 321 322 323 324 325 328 330 333 327 320 321 323 327 329
313 314 316 318 320 320 320 320 319 319 317 319 322 321 320 319 317 316 316 315 317 318 319 319 319 321 322 322 322 324 323 323 323 323 322 322 322 321 321 321 322 322 322 324 325 327 328 331 335 336 336 336 337 338
317 319 321 321 322 323 323 323 322 322 321 320 321 321 320 317 318 317 317 317 319 319 319 319 320 321 322 323 324 323 322 323 323 323 323 323 322 322 321 321 322 322 322 323 325 325 326 328 330 333 334 335 335 337
318 323 322 323 323 324 324 324 323 323 321 320 320 318 317 318 318 318 318 319 320 321 321 322 322 323 323 323 322 322 323 323 323 322 323 322 321 320 320 320 322 322 322 323 324 325 325 325 325 329 331 331 332 333
323 324 324 324 324 324 324 322 321 321 322 321 319 320 320 321 321 320 320 320 321 322 322 322 323 322 322 321 319 320 320 320 320 320 322 322 320 318 317 318 319 321 323 321 322 324 324 326 325 325 327 327 331 332
324 324 326 326 327 326 325 321 322 323 323 322 320 321 322 322 323 321 321 321 322 322 322 322 322 322 323 320 319 319 319 320 320 319 320 320 321 319 317 316 316 318 320 322 322 323 323 324 325 325 324 325 328 329
324 324 325 326 326 325 325 325 324 323 324 323 323 322 322 321 321 321 320 320 321 321 320 318 318 318 318 318 319 320 320 321 320 320 319 319 319 320 321 319 318 318 318 318 320 320 320 321 323 323 324 324 324 324
325 325 326 326 325 327 324 325 325 325 325 324 323 322 322 321 321 321 321 321 320 320 319 319 318 318 318 318 318 318 319 319 319 319 319 318 318 319 320 320 320 319 319 319 319 319 319 319 318 318 319 320 322 323
325 326 327 327 326 324 323 325 322 324 322 321 321 323 322 321 321 321 322 321 321 320 320 320 319 318 318 318 318 317 317 317 318 318 317 317 318 318 319 319 319 320 320 320 320 320 320 320 320 320 319 319 319 318
327 327 328 327 326 324 324 324 324 323 321 319 320 321 320 320 320 320 320 321 322 323 321 318 320 321 321 321 320 319 319 317 317 317 315 316 317 317 318 319 319 320 320 321 320 320 320 320 320 320 320 320 320 320
327 327 327 327 326 325 325 323 323 323 321 321 318 317 318 319 319 319 320 321 322 322 323 321 321 322 321 321 322 322 321 320 320 320 318 316 317 316 316 316 319 320 320 321 320 319 320 320 320 320 320 321 319 319
Wind_Speed
23 22 22 21 19 18 15 14 12 11 11 11 13 12 9 5 2 1 4 8 8 11 16 7 7 9 9 9 8 12 6 4 10 10 12 13 14 16 17 20 18 18 15 14 13 16 19 17 15 5 4 11 9 13
21 20 21 20 19 18 17 14 14 11 12 10 12 12 9 6 2 1 3 7 9 10 16 12 12 11 10 11 12 13 16 12 8 5 6 9 14 14 17 16 19 17 13 13 14 11 13 18 18 6 11 16 12 12
20 19 19 20 20 18 18 13 10 12 10 9 10 10 8 7 4 3 4 9 11 10 17 15 10 6 4 9 12 14 15 11 12 9 9 6 8 10 13 14 18 16 22 10 11 16 15 8 24 11 11 12 11 10
19 18 19 19 18 18 17 13 11 11 9 8 8 10 8 7 5 2 4 8 6 8 7 6 1 2 4 4 7 14 20 16 13 12 13 8 9 11 10 11 11 9 12 11 15 14 9 7 9 10 8 8 8 8
18 17 19 17 18 17 14 13 12 11 8 7 7 9 6 4 3 3 6 6 4 3 6 12 13 13 9 10 11 10 11 14 14 13 10 10 16 14 13 11 10 14 10 8 6 13 9 11 2 10 8 6 5 3
18 17 18 17 17 15 12 13 12 11 9 7 8 7 4 2 2 3 1 4 3 3 5 4 8 8 7 8 9 12 14 16 17 17 13 19 23 18 8 12 20 22 22 22 22 19 17 13 11 1 9 5 3 3
19 19 18 16 17 14 14 11 9 8 5 6 6 5 4 3 2 5 1 3 5 4 3 5 5 2 3 6 8 9 11 13 16 18 19 19 21 16 11 15 19 23 18 18 18 23 23 20 17 14 9 13 11 10
19 19 17 14 15 13 12 10 6 5 5 7 8 6 4 4 3 4 7 9 6 5 3 3 4 5 0 2 3 3 8 11 14 17 17 16 18 20 12 21 24 28 30 26 21 17 20 20 21 22 21 19 21 19
18 17 15 15 14 12 10 8 5 4 4 4 2 2 3 1 4 5 1 3 6 2 3 3 3 2 2 3 4 5 7 3 8 7 11 11 11 10 11 21 17 20 19 13 14 17 20 23 24 25 24 22 26 25
18 16 15 14 13 12 7 5 4 5 3 2 1 1 2 2 2 2 2 2 2 2 3 4 10 2 8 4 3 3 2 2 2 4 7 6 14 30 31 25 15 16 15 10 14 16 17 21 23 24 25 25 30 29
18 16 15 13 10 6 3 3 5 1 1 1 3 1 1 1 1 2 3 3 4 3 6 6 9 3 6 1 2 2 1 2 3 3 3 4 6 15 36 39 35 24 18 20 18 19 20 23 26 28 28 28 29 28
17 18 15 14 8 4 3 3 3 3 1 2 2 2 2 2 2 3 3 4 6 2 8 5 1 2 1 1 2 1 3 2 5 1 3 4 4 4 5 14 19 22 15 12 18 23 27 30 31 33 34 37 33 32
17 16 13 13 9 5 4 5 3 2 2 1 1 1 2 2 1 4 2 3 2 1 5 6 3 4 3 4 3 2 3 5 1 3 4 5 13 5 7 14 19 10 17 24 31 32 33 34 33 35 37 38 39 38
15 10 11 13 13 9 5 4 2 2 2 1 1 2 3 3 5 3 3 4 4 2 4 4 3 5 5 3 2 3 4 4 3 4 5 6 12 10 10 13 18 23 29 35 39 41 42 39 38 40 42 41 42 43
12 7 10 10 9 10 7 3 2 2 1 2 3 3 4 2 4 4 4 3 4 4 5 3 4 7 4 3 3 3 3 4 5 5 2 16 22 21 24 28 32 36 38 40 39 39 37 38 40 41 37 40 42 44
13 6 9 12 11 9 7 7 5 3 1 2 4 4 7 7 5 5 5 6 6 6 8 7 4 4 5 3 5 5 3 5 5 5 24 28 31 36 39 39 39 39 44 43 40 39 38 37 41 42 38 37 39 41
9 6 16 15 12 9 7 4 2 1 2 3 4 6 8 9 8 9 6 6 8 3 2 2 3 4 4 3 3 4 5 5 18 24 27 39 43 42 42 43 44 48 45 45 43 43 44 41 38 40 40 36 36 41
9 14 19 18 11 7 4 2 1 2 3 4 4 8 10 13 14 12 8 7 5 4 1 2 5 4 4 5 4 4 16 26 27 28 35 44 43 44 44 46 46 42 39 39 41 40 40 38 38 42 41 37 32 32
13 10 10 12 9 4 0 1 1 3 3 6 9 12 11 14 13 10 10 8 8 9 3 4 4 4 4 6 12 21 25 28 30 36 42 40 39 37 37 38 39 29 33 28 31 29 26 23 26 29 34 33 34 33
10 11 14 10 6 2 1 1 2 3 3 5 8 9 8 10 10 7 3 6 10 5 5 3 4 13 16 24 28 31 33 34 34 34 37 38 39 32 38 34 29 25 29 30 25 30 19 22 22 28 31 31 33 36
8 14 14 11 5 2 2 2 3 4 5 5 10 10 6 8 7 4 3 8 6 4 6 17 24 29 31 33 31 29 32 27 28 33 37 35 39 23 29 28 26 28 25 34 30 15 20 22 25 20 31 45 32 31
10 10 5 8 3 3 3 4 3 3 3 6 6 4 5 5 5 3 4 4 5 8 8 20 26 25 24 20 20 17 18 19 24 24 30 23 28 30 32 28 32 31 32 33 31 24 12 23 19 12 17 27 26 28
10 7 4 3 2 4 1 2 1 3 2 5 5 3 2 3 6 8 2 4 6 14 23 18 16 16 12 10 11 16 17 21 26 25 24 22 27 35 33 29 32 34 35 38 35 29 25 14 18 24 24 25 24 25
8 3 3 3 3 5 2 3 3 2 3 3 3 1 3 6 9 6 3 6 16 15 18 21 23 22 19 19 18 18 20 21 24 24 24 32 27 32 34 31 31 31 32 34 37 36 33 26 20 19 15 17 17 18
4 2 4 4 3 6 3 5 8 5 5 6 6 4 3 6 3 3 4 9 19 18 18 21 23 22 20 22 24 24 22 21 21 24 25 30 29 27 31 32 26 28 31 32 38 41 39 34 33 32 30 30 34 28
3 4 6 10 8 6 6 7 9 8 8 5 6 4 7 2 3 4 5 16 20 20 21 21 21 23 23 25 23 24 23 23 20 21 20 28 34 31 29 33 31 26 27 29 30 36 41 41 37 35 37 40 42 45
4 5 5 5 4 6 4 10 12 15 8 5 3 3 2 2 4 4 16 20 18 19 18 20 17 16 17 21 27 25 27 25 20 20 18 20 34 44 40 36 37 31 23 22 29 37 36 37 42 45 39 39 44 42
4 7 8 11 6 5 6 7 6 7 8 13 16 7 4 6 6 14 12 11 15 23 23 25 23 23 14 19 21 24 24 26 32 32 30 24 24 35 43 50 49 44 37 30 32 35 39 38 41 42 45 45 41 38
3 11 10 8 3 3 6 6 5 4 5 9 11 6 11 11 19 21 24 19 12 14 22 25 25 22 24 23 21 22 28 33 33 33 32 37 40 30 20 31 36 45 51 50 44 41 39 38 36 37 38 38 40 40
5 8 5 7 6 5 3 4 9 11 10 7 7 10 13 17 18 18 20 18 21 24 23 21 22 24 24 22 22 23 23 25 27 28 28 31 31 34 33 27 18 23 30 35 40 42 42 41 39 41 39 36 34 33
4 4 4 2 4 8 5 11 12 5 22 18 9 11 17 15 15 20 20 22 18 17 17 18 19 19 18 19 20 21 21 21 22 21 21 22 24 24 21 23 26 27 27 27 26 25 24 29 31 32 32 33 33 35
3 3 5 3 6 4 4 13 8 15 21 22 20 13 18 17 15 20 22 24 20 19 26 9 12 29 17 16 16 13 15 19 18 18 22 22 24 24 24 22 26 18 20 22 25 27 26 27 28 28 28 27 25 25
4 3 4 3 3 5 6 7 4 9 15 12 12 17 14 14 14 20 23 23 22 21 14 20 17 8 19 14 12 12 16 14 15 15 18 18 19 23 23 23 19 19 18 19 24 23 23 23 24 23 23 22 22 24
Wind_Direction
331 333 334 330 327 326 320 321 317 307 312 314 324 327 322 326 303 300 349 342 348 300 296 329 322 298 290 265 285 360 303 248 265 247 247 251 252 250 245 252 239 223 214 227 245 229 234 263 306 324 62 77 46 39
330 330 330 330 324 323 319 314 314 295 316 303 314 318 311 315 294 26 332 330 319 284 273 299 284 269 262 276 300 301 296 316 347 302 270 262 252 256 251 250 240 253 233 223 235 237 237 270 273 343 55 85 65 52
322 325 328 331 328 322 319 309 301 310 306 298 310 317 306 303 294 260 301 325 336 288 288 248 266 205 252 262 253 278 273 343 314 337 321 289 268 279 255 247 257 259 250 264 239 238 232 285 248 114 60 87 85 60
323 323 323 327 330 322 315 305 299 309 303 290 302 317 304 297 308 327 310 314 330 308 274 117 354 292 296 260 266 250 260 289 296 292 287 281 289 283 281 288 310 287 308 251 253 267 302 306 100 103 99 88 81 72
324 320 324 323 329 324 314 306 300 304 295 289 292 309 298 297 326 335 288 287 313 302 313 307 297 276 272 273 283 262 256 259 265 267 253 258 276 286 287 294 272 284 306 310 280 312 223 277 197 169 159 132 95 46
324 318 322 324 327 321 315 313 298 303 290 280 291 297 289 285 334 34 297 211 199 335 318 302 343 289 275 275 276 264 260 254 247 251 257 269 262 270 272 266 271 274 279 285 295 298 301 297 322 107 179 193 231 277
324 323 324 325 320 319 319 327 306 304 287 287 292 287 280 268 233 263 291 178 157 326 278 287 287 168 276 283 274 264 252 242 242 248 245 258 271 270 261 258 263 265 282 308 304 272 271 276 283 276 252 245 249 257
326 327 326 324 322 321 318 328 326 314 308 307 296 279 280 290 297 256 245 254 263 270 266 280 275 225 44 295 288 302 279 264 243 249 257 259 249 249 258 252 250 252 265 271 266 273 273 277 281 274 267 262 262 264
335 334 331 329 326 320 317 321 314 326 305 320 323 280 303 281 226 198 252 182 195 205 300 242 275 25 216 60 3 334 336 283 314 281 261 254 248 229 236 232 238 234 242 263 271 259 263 270 278 271 270 267 263 266
341 337 333 330 321 313 306 317 312 311 282 283 65 246 258 219 254 188 99 176 215 230 232 258 274 328 345 28 8 329 347 299 286 269 287 254 251 255 255 256 248 228 233 252 272 269 268 270 271 272 269 263 259 263
350 347 343 340 339 344 344 351 346 326 146 142 252 70 42 126 185 214 181 209 172 226 211 242 263 249 349 301 348 297 291 208 261 265 262 264 258 239 234 235 240 242 257 263 260 266 275 278 277 276 274 266 263 261
355 349 354 1 354 355 349 347 358 199 68 348 348 331 271 249 273 244 217 184 214 232 175 171 103 91 335 214 264 226 275 254 252 185 244 259 296 110 171 203 209 217 215 258 276 280 284 276 268 266 264 266 265 257
356 359 11 16 24 12 349 350 356 158 260 309 283 247 223 227 283 244 230 199 184 38 160 156 158 164 184 206 230 269 242 244 228 233 250 264 304 317 147 164 181 240 269 282 289 285 284 277 268 262 259 257 258 257
360 12 18 24 24 26 27 60 75 30 13 329 222 251 224 214 246 249 355 358 82 258 200 223 158 195 176 183 222 240 241 268 260 245 239 276 19 349 322 304 289 284 283 286 286 283 280 273 267 264 257 251 249 248
354 351 360 5 7 22 21 359 348 324 301 281 266 241 236 313 266 317 317 334 32 352 312 293 252 220 179 218 196 264 244 246 247 240 275 348 332 327 313 303 296 292 290 286 283 278 275 274 269 265 259 245 241 240
350 343 360 346 336 332 330 337 309 263 251 271 256 276 345 311 343 11 359 334 344 333 315 271 275 252 197 222 179 214 242 234 259 346 330 331 325 317 310 305 299 294 293 289 282 275 269 268 261 260 260 252 238 233
352 348 327 339 341 335 322 310 275 239 240 242 243 277 295 297 282 288 301 282 293 267 218 233 249 260 326 260 227 210 237 319 309 313 317 317 311 307 309 305 301 299 294 291 284 277 272 267 260 252 253 253 238 229
339 318 313 320 327 335 318 345 279 258 258 267 282 276 280 275 275 275 277 271 228 227 287 286 313 258 244 251 282 304 310 317 315 312 308 310 309 311 310 300 300 303 295 290 294 287 271 262 248 245 249 242 232 231
338 334 335 333 332 320 279 316 278 288 280 291 278 289 284 288 296 282 260 250 229 218 270 264 251 240 252 296 300 304 306 307 303 304 303 309 314 318 322 320 312 308 301 307 292 299 282 251 251 249 232 221 225 227
339 343 346 354 8 82 347 262 264 268 279 286 286 295 290 284 299 302 266 208 203 196 210 237 240 239 251 274 287 295 296 301 301 300 298 307 317 325 321 325 327 341 337 339 308 273 263 253 256 236 232 215 219 221
353 344 345 356 347 6 252 255 252 246 275 275 293 312 299 301 287 238 194 189 180 228 233 239 254 284 300 304 309 307 301 309 302 299 300 305 330 341 342 346 358 358 353 337 338 262 238 252 253 236 213 212 227 213
317 330 330 330 343 307 279 262 247 272 260 284 293 289 287 304 325 10 179 185 240 254 251 288 305 316 314 315 318 320 320 322 328 325 330 345 359 359 358 10 2 2 360 354 359 357 352 228 228 213 195 198 205 211
349 357 358 333 280 249 257 234 284 249 266 292 310 276 323 320 352 351 303 271 272 310 331 337 343 346 355 347 328 321 329 328 333 349 5 3 4 11 9 13 8 10 6 8 11 17 26 60 197 202 208 209 210 215
6 2 296 302 279 310 303 264 229 216 280 297 288 26 13 351 340 6 317 319 346 11 2 358 5 9 12 6 352 341 342 348 357 8 14 18 11 8 9 15 18 24 20 16 24 31 41 62 91 102 133 168 175 169
310 356 292 325 327 334 360 341 48 76 23 1 12 35 350 347 1 349 313 319 343 357 354 357 357 360 351 355 357 358 11 13 11 15 19 18 13 10 12 23 28 29 30 31 35 35 42 54 72 86 95 91 91 102
329 46 17 9 5 8 353 18 18 42 58 56 35 355 7 4 353 352 299 331 351 351 349 348 346 350 357 10 11 13 10 14 22 30 34 29 29 28 23 24 28 31 40 41 50 47 47 51 53 76 83 83 87 89
14 21 14 359 360 345 330 61 48 35 20 34 33 1 342 49 18 316 1 20 11 17 15 18 14 12 19 26 24 28 35 44 44 46 48 44 39 46 43 41 39 37 43 43 47 63 61 52 55 58 70 75 81 84
354 349 351 354 357 355 6 65 35 25 19 29 41 37 38 24 358 350 354 351 26 37 37 31 29 17 28 44 34 33 51 39 44 41 41 48 47 48 51 52 51 50 49 54 63 67 67 58 58 58 61 64 70 74
331 353 345 4 33 65 33 38 44 41 44 58 58 49 54 64 28 18 22 22 3 29 45 43 41 41 44 45 42 40 34 34 31 25 35 34 27 26 29 43 49 55 58 59 62 65 63 65 69 68 66 67 67 69
359 346 338 7 30 57 359 82 116 85 72 56 80 97 66 41 33 27 21 20 32 22 25 39 42 44 44 40 39 38 35 35 31 34 35 24 21 30 32 28 39 49 51 57 62 66 66 66 66 65 66 68 70 71
323 327 331 345 57 72 112 87 86 96 69 73 41 54 52 36 36 27 19 12 11 16 20 18 33 38 36 38 36 29 30 28 32 36 34 25 26 30 36 43 42 46 50 53 54 58 65 69 72 73 71 69 70 74
297 300 333 346 62 91 79 100 44 57 53 47 45 63 51 42 33 26 17 13 8 27 31 14 0 359 9 12 22 23 30 33 29 28 30 30 29 32 24 26 27 31 49 56 58 54 54 55 53 56 65 67 70 75
277 295 295 313 330 198 145 132 133 31 38 12 29 40 43 49 34 23 12 15 15 10 14 34 20 27 25 11 8 9 10 11 351 8 19 25 30 29 28 32 31 27 28 59 58 54 52 55 59 56 61 67 71 72